Powrót do katalogu

ATLAS 5 CENTAUR DEB

LostHEO
NORAD 46643·DEBRIS·🇺🇸 United States

Wystrzelony Sep 17, 2014 z Cape Canaveral Space Force Station

Loading…

Następne Przeloty (najbliższe 24 godziny)

TLE

NieaktualneSource: Space-Track

Epoka: Sep 6, 2025, 12:23 UTC

1 46643U 14055CT  25249.51605884  .00000007  00000-0  00000-0 0  9994
2 46643  19.6990 176.1856 4903766 112.4077 305.5009  1.85047316 33227

Śledź ATLAS 5 CENTAUR DEB w czasie rzeczywistym z AllMySat

Download on the App Store